This is the latest recevied weather packets stored in our database for station/object SA7AHC. If no packets are shown the sender has not sent any weather packets the latest 10 day(s).
| Time | Temp. | Humidity | Pressure | Rain* | Wind** | Luminosity | Snow |
|---|---|---|---|---|---|---|---|
| 1788363748 | 15.56° C | 94% | 1013.9 hPa | 0 mm | - | 74 W/m² | - |
| 1788363150 | 15.56° C | 95% | 1013.9 hPa | 0 mm | - | 128 W/m² | - |
| 1788362549 | 15.56° C | 95% | 1013.9 hPa | 0.25 mm | - | 62 W/m² | - |
| 1788361949 | 15° C | 95% | 1013.9 hPa | 0.25 mm | - | 163 W/m² | - |
| 1788361348 | 15° C | 95% | 1014.2 hPa | 0.51 mm | - | 148 W/m² | - |
| 1788360748 | 15° C | 95% | 1014.3 hPa | 0.51 mm | - | 86 W/m² | - |
| 1788360147 | 15° C | 95% | 1014.3 hPa | 0.51 mm | - | 40 W/m² | - |
| 1788359543 | 15° C | 94% | 1014 hPa | 0.51 mm | - | 130 W/m² | - |
| 1788358944 | 15° C | 94% | 1014.4 hPa | 0.25 mm | - | 123 W/m² | - |
| 1788358342 | 15° C | 92% | 1014.4 hPa | 0.25 mm | - | 116 W/m² | - |
| 1788357742 | 15.56° C | 92% | 1014.3 hPa | 0 mm | - | 72 W/m² | - |
| 1788357144 | 15.56° C | 91% | 1014 hPa | 0 mm | - | 109 W/m² | - |
| 1788356542 | 16.11° C | 90% | 1014 hPa | 0 mm | - | 141 W/m² | - |
| 1788355928 | 16.67° C | 92% | 1014.4 hPa | 0.25 mm | - | 223 W/m² | - |
| 1788355326 | 16.11° C | 93% | 1014.4 hPa | 0.76 mm | - | 482 W/m² | - |
| 1788354724 | 16.11° C | 93% | 1014.4 hPa | 1.52 mm | - | 221 W/m² | - |
| 1788354124 | 15.56° C | 93% | 1014.5 hPa | 1.78 mm | - | 545 W/m² | - |
| 1788353525 | 15.56° C | 96% | 1014.4 hPa | 1.78 mm | - | 624 W/m² | - |
| 1788352924 | 15° C | 94% | 1014.4 hPa | 1.78 mm | - | 248 W/m² | - |
| 1788352323 | 15° C | 93% | 1014.6 hPa | 1.52 mm | - | 65 W/m² | - |
| 1788351724 | 15.56° C | 91% | 1014.3 hPa | 1.02 mm | - | 30 W/m² | - |
| 1788351121 | 16.11° C | 87% | 1014.4 hPa | 0.25 mm | - | 47 W/m² | - |
| 1788350524 | 17.78° C | 82% | 1014.5 hPa | 0 mm | - | 134 W/m² | - |
| 1788349921 | 17.22° C | 83% | 1014.6 hPa | 0 mm | - | 371 W/m² | - |
| 1788349322 | 16.67° C | 86% | 1014.6 hPa | 0 mm | - | 380 W/m² | - |
* Rain latest hour (hover to see other rain measurements)
** Current wind speed in m/s (hover to see current wind gust speed)